H-2A R/B (28932 NORAD) Tracking and Keplerian Element Data

This shows tracking and keplerian element data for the satellite.

Feedback or suggestion? Click here.




ElementValue
Catalog28932
NameH-2A R/B
Epoch Orbit97589
Epoch Day12.80857343
Epoch Year2024
RAAN95.9191
Inclination98.2202
Eccentricity0.0078707
Argument of Perigee359.9148
Mean Anonmoly0.2046
Mean Motion14.98754257
Decay Rate6.123E-05
L11 28932U 06002B 24012.80857343 .00006123 00000+0 48230-3 0 9990
L22 28932 98.2202 95.9191 0078707 359.9148 0.2046 14.98754257975893



Live tracking and technical data element details for H-2A R/B (NORAD 28932). H-2A R/B can be tracked NOW for your location showing map with azimuth and elevation plus other details from your city location.







IsCatalogInMostPopularTable: catalog: 28932, numindb: 423
Update: records affected: 1



GetName: 28932 H-2A R/B

Hit Count: updated at: Fri, 19 Apr 2024 11:40:17 GMT